Flag for Canada Weather past 2 weeks in Churchill, Manitoba, Canada

Now
45 °F

Overcast.


Feels Like: 39 °F
Forecast: 41 / 46 °F
Wind: 12 mph from Northwest

Location: Churchill

Current Time: Sep 19, 2014 at 5:47:27 AM

Latest Report: Sep 19, 2014 at 5:00 AM


Visibility: 15 mi

Pressure: 29.36 "Hg

Humidity: 93%

Dew point: 43 °F

Location of ChurchillLocation

Historic Weather in Churchill — Graph

°F

Churchill temperature yesterday

Maximum temperature yesterday: 41 °F (at 8:00 PM)
Minimum temperature yesterday: 28 °F (at 12:00 AM)
Average temperature yesterday: 36 °F

Past Weeks' High & Low Weather Summary

 TemperatureHumidityPressure
High54 °F (Sep 11, 3:00 PM)100% (Sep 5, 4:00 PM)30.28 "Hg (Sep 5, 4:00 PM)
Low28 °F (Sep 17, 10:00 PM)44% (Sep 7, 1:00 PM)29.36 "Hg (Sep 19, 2:00 AM)
Average41 °F75%29.94 "Hg
* Reported Sep 4 4:00 AM — Sep 19 4:00 AM, Churchill, Weather by CustomWeather, © 2014

Note: Actual official high and low records may vary slightly from our data, if they occured in-between our weather recording intervals... More about our weather records

Advertising

Churchill weather history for previous 24 hours

 ConditionsComfort  
Time TempWeatherWind HumidityBarometerVisibility
4:00 AM
Sep 19
45 °FOvercast.10 mph93%29.37 "Hg15 mi
3:00 AM45 °FOvercast.10 mph100%29.36 "Hg15 mi
2:00 AM43 °FMostly cloudy.8 mph100%29.36 "Hg8 mi
1:00 AM43 °FFog.8 mph100%29.36 "Hg3 mi
12:00 AM41 °FFog.8 mph100%29.37 "Hg3 mi
11:00 PM
Sep 18
41 °FFog.9 mph100%29.39 "Hg3 mi
10:00 PM41 °FFog.9 mph93%29.41 "Hg4 mi
9:00 PM41 °FLight rain. Low clouds.10 mph93%29.43 "Hg10 mi
8:00 PM41 °FLight rain. Mostly cloudy.10 mph93%29.46 "Hg10 mi
7:00 PM39 °FLight rain. Low clouds.8 mph100%29.48 "Hg10 mi
6:00 PM39 °FLight rain. Low clouds.15 mph93%29.50 "Hg10 mi
5:00 PM39 °FLight rain. Mostly cloudy.22 mph93%29.50 "Hg15 mi
4:00 PM37 °FLight rain. Mostly cloudy.18 mph93%29.55 "Hg10 mi
3:00 PM37 °FLight rain. More clouds than sun.21 mph93%29.57 "Hg10 mi
2:00 PM37 °FLight rain. Overcast.25 mph87%29.60 "Hg10 mi
1:00 PM37 °FMore clouds than sun.22 mph87%29.65 "Hg15 mi
12:00 PM37 °FLight rain. More clouds than sun.22 mph81%29.72 "Hg15 mi
11:46 AM39 °FLight rain. More clouds than sun.22 mph70%29.72 "Hg15 mi
11:00 AM39 °FMore clouds than sun.21 mph70%29.75 "Hg15 mi
10:00 AM37 °FBroken clouds.18 mph70%29.78 "Hg15 mi
9:00 AM34 °FOvercast.18 mph75%29.83 "Hg15 mi
8:00 AM32 °FOvercast.17 mph80%29.86 "Hg15 mi
7:00 AM32 °FOvercast.13 mph75%29.90 "Hg15 mi
6:00 AM30 °FPassing clouds.14 mph80%29.93 "Hg15 mi
5:00 AM30 °FPassing clouds.15 mph80%29.96 "Hg15 mi
Weather by CustomWeather, © 2014

See weather overviewHow to use our weather pages